Location: Asheville, NC
(35.6000°N, 82.5500°W)
Time: 05:08:32
(UTC-04:00)

XW-2B - Pass Details

Date: 12 January 2018
Orbit: 511 x 529 km, 97.5° (Epoch: 22 April)

Event Time Altitude Azimuth Distance (km) Brightness Sun altitude
Rises 18:04:44 0° 175° (S) 2,652 ? -5.8°
Reaches altitude 10° 18:06:51 10° 180° (S) 1,767 ? -6.2°
Maximum altitude 18:10:37 59° 260° (W) 617 ? -7.0°
Drops below altitude 10° 18:14:24 10° 340° (NNW) 1,778 ? -7.7°
Sets 18:16:32 0° 344° (NNW) 2,670 ? -8.1°
